Home > Weather > Witzenhausen > Past weeks

Flag for Germany Past Weather in Witzenhausen, Hesse, Germany — Yesterday and Last 2 Weeks

Now
88 °F

Scattered clouds.


Feels Like: 87 °F
Forecast: 64 / 85 °F
Wind: 6 mph from East

Location: Kassel / Calden

Current Time: Aug 27, 2016 at 7:15:39 PM

Latest Report: Aug 27, 2016 at 6:50 PM


Visibility: N/A

Pressure: 30.04 "Hg

Humidity: 38%

Dew Point: 59 °F

Location of WitzenhausenLocation

Past Weather in Witzenhausen — Graph

°F

Witzenhausen Temperature Yesterday

Maximum temperature yesterday: 93 °F (at 3:50 PM)
Minimum temperature yesterday: 61 °F (at 7:20 AM)
Average temperature yesterday: 83 °F

High & Low Weather Summary for the Past Weeks

 TemperatureHumidityPressure
High93 °F (Aug 26, 3:50 PM)100% (Aug 13, 7:20 AM)30.36 "Hg (Aug 13, 7:20 AM)
Low48 °F (Aug 17, 7:20 AM)20% (Aug 25, 5:20 PM)29.80 "Hg (Aug 18, 3:50 PM)
Average71 °F58%30.10 "Hg
* Reported Aug 12 5:20 PM — Aug 27 5:50 PM, Witzenhausen, Weather by CustomWeather, © 2016

Note: Actual official high and low records may vary slightly from our data, if they occured in-between our weather recording intervals... More about our weather records

Advertising

Witzenhausen Weather History for the Previous 24 Hours

Scroll right to see more
 ConditionsComfort  
Time TempWeatherWind HumidityBarometerVisibility
5:50 PM
Sat, Aug 27
91 °FScattered clouds.7 mph32%30.04 "HgN/A
5:20 PM91 °FScattered clouds.5 mph32%30.04 "HgN/A
4:50 PM91 °FScattered clouds.10 mph34%30.04 "HgN/A
4:20 PM93 °FPassing clouds.6 mph34%30.07 "HgN/A
3:50 PM91 °FPassing clouds.3 mph36%30.07 "HgN/A
3:20 PM91 °FPassing clouds.7 mph34%30.07 "HgN/A
2:50 PM91 °FPassing clouds.7 mph34%30.09 "HgN/A
2:20 PM90 °FPassing clouds.3 mph38%30.09 "HgN/A
1:50 PM90 °FSunny.3 mph41%30.09 "Hg10 mi
12:50 PM86 °FPassing clouds.6 mph49%30.09 "HgN/A
12:20 PM84 °FPassing clouds.6 mph51%30.12 "HgN/A
11:50 AM82 °FPassing clouds.3 mph55%30.12 "HgN/A
11:20 AM79 °FPassing clouds.3 mph58%30.12 "HgN/A
10:50 AM77 °FSunny.3 mph61%30.12 "Hg10 mi
10:20 AM75 °FClear.2 mph65%30.12 "Hg6 mi
9:50 AM72 °FClear.2 mph73%30.12 "Hg6 mi
9:20 AM70 °FSunny.2 mph78%30.12 "Hg10 mi
8:50 AM68 °FPassing clouds.3 mph83%30.12 "HgN/A
8:20 AM66 °FSunny.3 mph94%30.12 "Hg10 mi
7:50 AM64 °FSunny.2 mph100%30.12 "Hg10 mi
7:20 AM64 °FClear.2 mph100%30.12 "Hg10 mi
9:20 PM
Fri, Aug 26
77 °FClear.3 mph54%30.07 "Hg10 mi
8:50 PM82 °FSunny.2 mph48%30.07 "Hg10 mi
8:20 PM84 °FSunny.1 mph45%30.07 "Hg10 mi
7:50 PM86 °FSunny.2 mph43%30.04 "Hg10 mi
7:20 PM90 °FSunny.5 mph36%30.04 "Hg10 mi
Weather by CustomWeather, © 2016

See weather overviewHow to use our weather pages